Location: Cran-Gévrier
(45.9039°N, 6.1012°E)
Time: 21:16:59
(UTC+00:00)

STRAND 1 - Pass Details

Date: 13 December 2023
Orbit: 766 x 778 km, 98.4° (Epoch: 28 February)

Event Time Altitude Azimuth Distance (km) Brightness Sun altitude
Exits shadow 16:44:05 11° 74° (ENE) 2,252 ? -9.0°
Maximum altitude 16:45:10 12° 87° (E) 2,205 ? -9.1°
Drops below altitude 10° 16:46:52 10° 106° (ESE) 2,310 ? -9.4°
Sets 16:50:57 0° 139° (SE) 3,233 ? -10.1°
